COSMOS 2205 (GLONASS)

Satellite information

Favourite Embed

Satellite Type and Status

PAYLOADIN ORBIT

Key statistics

Satellite COSMOS 2205 (GLONASS) at a glance.

Uptime

12140

Days in orbit

Revolutions

≈ 2.1

Per day

Orbit

MEO

Medium Earth Orbit

Inclination

64.3

Latest

Satellite identification and parameters

Extended collection of information and parameters for COSMOS 2205 (GLONASS).

Object identification

Identified? True

Debris? False

Object name: COSMOS 2205 (GLONASS)

International designator: 1992-047C

Object number (NORAD): 22058

Object ID (CCSDS): 22058

Country: COMMONWEALTH OF INDEPENDENT STATES (CIS)

Current information (Y/N): Y

RCS size: LARGE

Orbital parameters

Period: 675.729 minutes

Inclination: 64.3088 deg

SMA: 25507.93 km

Apoapsis: 19180.393 km

Periapsis: 19079.196 km

RAAN: 310.5468 deg

Eccentricy: 0.00198362

Argument of periapsis: 225.6239 deg

Mean anomaly: 132.0299 deg

Mean motion: 2.13103188 rev/day

Mean motion (dot): -0.00000027 rev/day2

B* drag term: 0.0 1/REarth

Two-line elements (TLE)

Creation date: Oct. 25, 2025, 3:11 a.m.

Reference frame: TEME

Reference center: EARTH

Epoch: Oct. 24, 2025, 8:58 a.m. UTC

TLE line 0: 0 COSMOS 2205 (GLONASS)

TLE line 1: 1 22058U 92047C 25297.37405903 -.00000027 00000-0 00000-0 0 9995

TLE line 2: 2 22058 64.3088 310.5468 0019836 225.6239 132.0299 2.13103188258504

Live tracking on map

Real-time ground track for satellite COSMOS 2205 (GLONASS).

In-orbit conjunctions

A list of the most updated potential collisions computed for object COSMOS 2205 (GLONASS).

Target Orbit TCA Probability of collision Miss distance Type
SL-12 R/B(2) MEO 2025-05-14 21:23:22 TBA 4258.0 (m) ROCKET BODY

Associated space launch

GLONASS navigation satellites

COSMOS 2205 (GLONASS) was lifted into orbit during the mission ‘Proton | Uragan 48 to 50’, on board a Proton space rocket.

The launch took place on July 30, 1992, 1:59 a.m. from 81/23 (81L).

For more information about the launch, click the button.

Launch to space Proton | Uragan 48 to 50
Proton | Uragan 48 to 50

Agency: N/A

Status: Launch Successful

Launch date: July 30, 1992, 1:59 a.m. UTC

Rocket: Proton

Launch pad: 81/23 (81L)

Location: Baikonur Cosmodrome, Republic of Kazakhstan

...

Latest news about this satellite

There are no fresh news available about this satellite. Check back as we update our databases every day.


Newsletter sign-up

Weekly statistics, charts and insights to help you stay on top of the space industry.